Find Starlink 33950

NORAD ID: 63701 Int'l Des: 2025-087 Owner: SPXS Country: US Constellation: starlink operational
LEOCIRCULAR

Live-Position

3D-Globus wird geladen...

Über Starlink 33950

Beschreibung wird geladen...

Nächste Überflüge

Passes for default location (London). Set your location on the main map for personalized predictions.

Höhenverlauf

Loading altitude history...

Zweizeiliger Elementsatz

1 63701U 25087E 26123.85480889 .00012097 00000-0 41990-3 0 9998
2 63701 53.1577 323.4654 0001199 86.8607 273.2531 15.30199572 57646
Epoch: 3. Mai 2026 • Age: 14 hours

Aktueller Status

Höhe 482.7 km
Geschwindigkeit 7.62 km/s
Subsatellitenpunkt -24.46°S, 78.7°W
Startdatum 28. Apr. 2025
Alter 1 years
Typ internet

Technische Details

Klassifizierung Payload
Masse 575.00 kg
Trockenmasse 530.00 kg
Gesamtmasse 575.00 kg
Länge 0.30 m
Durchmesser 4.10 m
Spannweite 29.00 m
Form Box + pan
Hersteller SPXS
Bus-Typ Starlink V2MO
Phasenstatus In Orbit
Besitzer/Staat SPXS/US

Most Searched